Stündliche Wetter Abakaliki

Heute, 25 Februar, Donnerstag

Zeit Temperatur Niederschläge Wind Luftdruck Luftfeuchtigkeit
00:00 +29°C° 0 mm 2 m/S 751 mmHg 44%
01:00 +27°C° 0 mm 2 m/S 751 mmHg 58%
02:00 +27°C° 0 mm 2 m/S 750 mmHg 65%
03:00 +26°C° 0 mm 2 m/S 750 mmHg 72%
04:00 +26°C° 0 mm 1 m/S 750 mmHg 79%
05:00 +26°C° 0 mm 1 m/S 750 mmHg 81%
06:00 +25°C° 0 mm 1 m/S 751 mmHg 82%
07:00 +24°C° 0 mm 0 m/S 751 mmHg 80%
08:00 +26°C° 0 mm 0 m/S 751 mmHg 68%
09:00 +29°C° 0 mm 0 m/S 752 mmHg 57%
10:00 +32°C° 0 mm 0 m/S 752 mmHg 45%
11:00 +35°C° 0 mm 1 m/S 751 mmHg 36%
12:00 +38°C° 0 mm 2 m/S 750 mmHg 27%
13:00 +40°C° 0 mm 3 m/S 749 mmHg 18%
14:00 +42°C° 0 mm 3 m/S 748 mmHg 15%
15:00 +42°C° 0 mm 3 m/S 747 mmHg 13%
16:00 +43°C° 0 mm 3 m/S 746 mmHg 10%
17:00 +40°C° 0 mm 2 m/S 747 mmHg 11%
18:00 +38°C° 0 mm 2 m/S 747 mmHg 12%
19:00 +35°C° 0 mm 1 m/S 748 mmHg 13%
20:00 +34°C° 0 mm 2 m/S 749 mmHg 24%
21:00 +33°C° 0 mm 4 m/S 750 mmHg 35%
22:00 +30°C° 0 mm 5 m/S 751 mmHg 46%
23:00 +30°C° 0 mm 5 m/S 751 mmHg 56%

Morgen, 26 Februar, Freitag

Zeit Temperatur Niederschläge Wind Luftdruck Luftfeuchtigkeit
00:00 +29°C° 0 mm 4 m/S 751 mmHg 65%
01:00 +29°C° 0 mm 4 m/S 751 mmHg 75%
02:00 +28°C° 0 mm 3 m/S 751 mmHg 77%
03:00 +28°C° 0 mm 2 m/S 751 mmHg 79%
04:00 +27°C° 0 mm 2 m/S 750 mmHg 81%
05:00 +27°C° 0 mm 2 m/S 751 mmHg 82%
06:00 +27°C° 0 mm 2 m/S 751 mmHg 84%
07:00 +27°C° 0 mm 2 m/S 752 mmHg 85%
08:00 +29°C° 0 mm 2 m/S 752 mmHg 75%
09:00 +31°C° 0 mm 3 m/S 752 mmHg 65%
10:00 +34°C° 0 mm 4 m/S 752 mmHg 55%
11:00 +35°C° 0 mm 4 m/S 752 mmHg 49%
12:00 +36°C° 0 mm 3 m/S 751 mmHg 44%
13:00 +38°C° 0 mm 3 m/S 750 mmHg 38%
14:00 +39°C° 0 mm 3 m/S 749 mmHg 34%
15:00 +40°C° 0 mm 2 m/S 748 mmHg 30%
16:00 +41°C° 0 mm 2 m/S 748 mmHg 25%
17:00 +39°C° 0 mm 2 m/S 748 mmHg 28%
18:00 +38°C° 0 mm 2 m/S 748 mmHg 30%
19:00 +36°C° 0 mm 3 m/S 748 mmHg 33%
20:00 +35°C° 0 mm 4 m/S 749 mmHg 44%
21:00 +33°C° 0 mm 4 m/S 749 mmHg 56%
22:00 +30°C° 0 mm 5 m/S 750 mmHg 68%
23:00 +29°C° 0 mm 5 m/S 750 mmHg 70%

übermorgen, 27 Februar, Samstag

Zeit Temperatur Niederschläge Wind Luftdruck Luftfeuchtigkeit
00:00 +29°C° 0 mm 4 m/S 750 mmHg 73%
01:00 +28°C° 0 mm 4 m/S 750 mmHg 76%
02:00 +28°C° 0 mm 4 m/S 750 mmHg 79%
03:00 +27°C° 0 mm 3 m/S 750 mmHg 81%
04:00 +27°C° 0 mm 2 m/S 750 mmHg 84%
05:00 +27°C° 0 mm 2 m/S 750 mmHg 86%
06:00 +26°C° 0 mm 2 m/S 751 mmHg 88%
07:00 +26°C° 0 mm 2 m/S 751 mmHg 89%
08:00 +28°C° 0 mm 2 m/S 751 mmHg 80%
09:00 +30°C° 0 mm 3 m/S 752 mmHg 70%
10:00 +33°C° 0 mm 3 m/S 752 mmHg 60%
11:00 +35°C° 0 mm 3 m/S 751 mmHg 54%
12:00 +36°C° 0 mm 3 m/S 750 mmHg 48%
13:00 +38°C° 0 mm 3 m/S 749 mmHg 43%
14:00 +38°C° 0 mm 2 m/S 749 mmHg 40%
15:00 +39°C° 0 mm 2 m/S 748 mmHg 36%
16:00 +39°C° 0 mm 2 m/S 747 mmHg 33%
17:00 +38°C° 0.1 mm 3 m/S 748 mmHg 39%
18:00 +36°C° 0.1 mm 3 m/S 748 mmHg 44%
19:00 +35°C° 0.1 mm 4 m/S 748 mmHg 50%
20:00 +33°C° 0.4 mm 4 m/S 749 mmHg 56%
21:00 +32°C° 0.4 mm 4 m/S 749 mmHg 61%
22:00 +30°C° 0.4 mm 4 m/S 750 mmHg 67%
23:00 +30°C° 0 mm 4 m/S 750 mmHg 71%

28 Februar, Sonntag

Zeit Temperatur Niederschläge Wind Luftdruck Luftfeuchtigkeit
00:00 +29°C° 0 mm 4 m/S 749 mmHg 75%
01:00 +28°C° 0 mm 3 m/S 749 mmHg 79%
02:00 +28°C° 0 mm 3 m/S 749 mmHg 80%
03:00 +28°C° 0 mm 3 m/S 749 mmHg 82%
04:00 +27°C° 0 mm 2 m/S 749 mmHg 84%
05:00 +27°C° 0 mm 2 m/S 749 mmHg 85%
06:00 +27°C° 0 mm 1 m/S 749 mmHg 86%
07:00 +26°C° 0 mm 1 m/S 750 mmHg 88%
08:00 +28°C° 0 mm 1 m/S 750 mmHg 78%
09:00 +30°C° 0 mm 2 m/S 751 mmHg 69%
10:00 +32°C° 0 mm 2 m/S 751 mmHg 59%
11:00 +34°C° 0 mm 1 m/S 750 mmHg 51%
12:00 +36°C° 0 mm 1 m/S 749 mmHg 44%
13:00 +40°C° 0 mm 1 m/S 748 mmHg 36%
14:00 +40°C° 0 mm 1 m/S 748 mmHg 33%
15:00 +40°C° 0 mm 1 m/S 747 mmHg 30%
16:00 +41°C° 0 mm 1 m/S 746 mmHg 27%
17:00 +39°C° 0 mm 2 m/S 746 mmHg 32%
18:00 +38°C° 0 mm 3 m/S 746 mmHg 36%
19:00 +37°C° 0 mm 5 m/S 747 mmHg 40%
20:00 +35°C° 0 mm 4 m/S 747 mmHg 46%
21:00 +34°C° 0 mm 4 m/S 748 mmHg 51%
22:00 +33°C° 0 mm 4 m/S 749 mmHg 57%
23:00 +32°C° 0 mm 4 m/S 749 mmHg 62%

1 März, Montag

Zeit Temperatur Niederschläge Wind Luftdruck Luftfeuchtigkeit
00:00 +30°C° 0 mm 4 m/S 749 mmHg 68%
01:00 +29°C° 0 mm 4 m/S 749 mmHg 73%
02:00 +29°C° 0 mm 3 m/S 749 mmHg 76%
03:00 +28°C° 0 mm 3 m/S 749 mmHg 78%
04:00 +28°C° 0 mm 2 m/S 749 mmHg 81%
05:00 +28°C° 0 mm 2 m/S 750 mmHg 82%
06:00 +27°C° 0 mm 1 m/S 750 mmHg 83%
07:00 +27°C° 0 mm 1 m/S 750 mmHg 84%
08:00 +29°C° 0 mm 1 m/S 751 mmHg 75%
09:00 +31°C° 0 mm 2 m/S 751 mmHg 66%
10:00 +34°C° 0 mm 2 m/S 751 mmHg 57%
11:00 +35°C° 0 mm 1 m/S 750 mmHg 50%
12:00 +36°C° 0 mm 1 m/S 750 mmHg 43%
13:00 +39°C° 0 mm 1 m/S 749 mmHg 36%
14:00 +40°C° 0 mm 1 m/S 748 mmHg 33%
15:00 +40°C° 0 mm 1 m/S 747 mmHg 30%
16:00 +40°C° 0 mm 2 m/S 746 mmHg 27%
17:00 +39°C° 0 mm 2 m/S 746 mmHg 29%
18:00 +38°C° 0 mm 3 m/S 746 mmHg 31%
19:00 +37°C° 0 mm 3 m/S 747 mmHg 33%
20:00 +36°C° 0 mm 3 m/S 747 mmHg 38%
21:00 +34°C° 0 mm 2 m/S 748 mmHg 43%
22:00 +32°C° 0 mm 2 m/S 748 mmHg 48%
23:00 +31°C° 0 mm 3 m/S 749 mmHg 56%

2 März, Dienstag

Zeit Temperatur Niederschläge Wind Luftdruck Luftfeuchtigkeit
00:00 +30°C° 0 mm 3 m/S 749 mmHg 64%
01:00 +30°C° 0 mm 4 m/S 749 mmHg 72%
02:00 +29°C° 0 mm 3 m/S 749 mmHg 74%
03:00 +28°C° 0 mm 2 m/S 749 mmHg 77%
04:00 +28°C° 0 mm 1 m/S 749 mmHg 79%
05:00 +28°C° 0 mm 1 m/S 750 mmHg 80%
06:00 +28°C° 0 mm 1 m/S 750 mmHg 81%
07:00 +28°C° 0 mm 1 m/S 751 mmHg 81%
08:00 +30°C° 0 mm 1 m/S 751 mmHg 72%
09:00 +32°C° 0 mm 1 m/S 751 mmHg 62%
10:00 +34°C° 0 mm 1 m/S 751 mmHg 53%
11:00 +37°C° 0 mm 2 m/S 751 mmHg 43%
12:00 +39°C° 0 mm 2 m/S 750 mmHg 34%
13:00 +40°C° 0 mm 3 m/S 749 mmHg 24%
14:00 +42°C° 0 mm 3 m/S 748 mmHg 21%
15:00 +43°C° 0 mm 3 m/S 747 mmHg 17%
16:00 +44°C° 0 mm 3 m/S 746 mmHg 13%
17:00 +41°C° 0 mm 2 m/S 746 mmHg 12%
18:00 +39°C° 0 mm 2 m/S 746 mmHg 12%
19:00 +38°C° 0 mm 2 m/S 747 mmHg 11%
20:00 +36°C° 0 mm 2 m/S 747 mmHg 24%
21:00 +34°C° 0 mm 3 m/S 748 mmHg 36%
22:00 +32°C° 0 mm 4 m/S 748 mmHg 49%
23:00 +30°C° 0 mm 4 m/S 749 mmHg 56%
Mehr zeigen

Wir brauchen deine Erlaubnis

Meteoprog und unser Service Anbieter werden persönliche Daten aufbewahren, so wie Cookies, Geräte Bezeichnung oder ähnliche Technologien von deinem Gerät und Prozess, so wie Persönliche Daten Inhalte und Werbungen, genauso wie social Media und den Verkehr zu analysieren.

  • Aufbewahrung und/oder Zugang zu deiner Geräte Informationen.

    Cookies, Geräte Bezeichnung oder andere Informationen, können aufbewahrt oder Zugang zu deinem Gerät erhalten, für den Grund, der oben angegeben wird.

  • Personalisierte Werbung und Inhalte, Messungen, Einblick in das Publikum und Produkt Entwicklung.

    Werbungen und Inhalte können personalisiert werden, basierend auf ein Profil. Mehr Daten können besser personalisierte Werbungen und Inhalte hinzufügen. Werbung und Inhalte können gezeigt und gemessen werden. Einblicke über das Publikum, welche die Werbung gesehen haben und den Inhalt, können abgeleitet werden. So wie Daten können genutzt werden, um es zu verbessern oder die Benutzer Erfahrung zu verbessern das System und die Software.

Wenn du “Ich stimme zu” klickst, erlaubst du uns, die Cookies zu benutzen die Geräte Bezeichnung, den Web oder ähnliche Technologien zu benutzen. Deine Settings, können in deinem Gerät bei deinem Browser geändert werden.

Für den bestimmten Zweck, berechtigten Interessen beruhen darauf, mehr als auf den Inhalt. Du kannst mehr darüber in unseren Privaten und Cookie Politik lesen.